Weather History for Rensselaer, IN

Change the Weather History Date:

Tuesday, November 26, 2013

  Actual Average (KVPZ) Record (KVPZ)
Temperature  
Mean Temperature 30 °F 36 °F  
Max Temperature 33 °F 43 °F 60 °F (2006)
Min Temperature 24 °F 29 °F 19 °F (2010)
Degree Days  
Heating Degree Days 36 29  
Month to date heating degree days 605  
Since 1 July heating degree days 1135  
Cooling Degree Days 0 0  
Month to date cooling degree days 0  
Year to date cooling degree days 713  
Moisture  
Dew Point 27 °F    
Average Humidity 86    
Maximum Humidity 100    
Minimum Humidity 64    
Precipitation  
Precipitation 0.00 in 0.10 in 0.19 in (2009)
Month to date precipitation 2.92  
Year to date precipitation 34.92  
Sea Level Pressure  
Sea Level Pressure 30.06 in    
Wind  
Wind Speed 9 mph (West)    
Max Wind Speed 18 mph    
Max Gust Speed 25 mph    
Visibility 10 miles    
Events      
T = Trace of Precipitation, MM = Missing Value Source: NWS Daily Summary

Daily Weather History Graph

Daily Weather History Graph

Search for Another Location

Airport:

Trip Planner

Search our weather history database for the weather conditions in past years. The results will help you decide how hot, cold, wet, or windy it might be!

Date:

Astronomy

Nov. 26, 2013 Rise Set
Actual Time 6:49 AM CST 4:22 PM CST
Civil Twilight 6:18 AM CST 4:53 PM CST
Nautical Twilight 5:44 AM CST 5:27 PM CST
Astronomical Twilight 5:11 AM CST 6:00 PM CST
Moon No Moon Rise 12:32 PM CST (11/26)
Length of Visible Light 10h 34m
Length of Day
9h 33m
Last Quarter, 41% of the Moon is Illuminated
Nov 26
Last Quarter
Dec 2
New
Dec 9
First Quarter
Dec 17
Full
Dec 25
Last Quarter

Hourly Weather History & Observations

Time (CST) Temp. Windchill Dew Point Humidity Pressure Visibility Wind Dir Wind Speed Gust Speed Precip Events Conditions
12:15 AM 30.2 °F 20.8 °F 28.4 °F 93% 30.14 in 10.0 mi SSW 11.5 mph - N/A   Overcast
12:35 AM 30.2 °F 21.3 °F 28.4 °F 93% 30.12 in 10.0 mi SSW 10.4 mph - N/A   Overcast
12:55 AM 30.2 °F 21.9 °F 28.4 °F 93% 30.13 in 10.0 mi SSW 9.2 mph - N/A   Overcast
1:15 AM 30.2 °F 21.9 °F 28.4 °F 93% 30.13 in 10.0 mi SSW 9.2 mph - N/A   Overcast
1:35 AM 30.2 °F 22.6 °F 28.4 °F 93% 30.13 in 10.0 mi SSW 8.1 mph - N/A   Overcast
1:55 AM 30.2 °F 22.6 °F 28.4 °F 93% 30.12 in 10.0 mi SSW 8.1 mph - N/A   Overcast
2:15 AM 30.2 °F 21.9 °F 28.4 °F 93% 30.12 in 10.0 mi SW 9.2 mph - N/A   Overcast
2:35 AM 30.2 °F 22.6 °F 26.6 °F 86% 30.12 in 10.0 mi SSW 8.1 mph - N/A   Mostly Cloudy
2:55 AM 28.4 °F 20.4 °F 26.6 °F 93% 30.11 in 10.0 mi SSW 8.1 mph - N/A   Clear
3:15 AM 28.4 °F 21.2 °F 26.6 °F 93% 30.11 in 10.0 mi SSW 6.9 mph - N/A   Clear
3:35 AM 28.4 °F 21.2 °F 26.6 °F 93% 30.11 in 10.0 mi SW 6.9 mph - N/A   Clear
3:55 AM 26.6 °F 20.0 °F 24.8 °F 93% 30.11 in 10.0 mi SW 5.8 mph - N/A   Clear
4:15 AM 28.4 °F 24.6 °F 26.6 °F 93% 30.09 in 10.0 mi SW 3.5 mph - N/A   Clear
4:35 AM 26.6 °F 20.0 °F 23.0 °F 86% 30.11 in 10.0 mi SSW 5.8 mph - N/A   Clear
4:55 AM 26.6 °F 19.1 °F 26.6 °F 100% 30.10 in 10.0 mi SSW 6.9 mph - N/A   Clear
5:15 AM 26.6 °F 20.0 °F 23.0 °F 86% 30.10 in 10.0 mi SSW 5.8 mph - N/A   Clear
5:35 AM 26.6 °F 19.1 °F 24.8 °F 93% 30.09 in 10.0 mi SW 6.9 mph - N/A   Clear
5:55 AM 26.6 °F 19.1 °F 24.8 °F 93% 30.08 in 10.0 mi SW 6.9 mph - N/A   Scattered Clouds
6:15 AM 26.6 °F 20.0 °F 24.8 °F 93% 30.08 in 10.0 mi SSW 5.8 mph - N/A   Mostly Cloudy
6:35 AM 28.4 °F 21.2 °F 26.6 °F 93% 30.08 in 10.0 mi SW 6.9 mph - N/A   Overcast
6:55 AM 28.4 °F 23.3 °F 26.6 °F 93% 30.08 in 10.0 mi SW 4.6 mph - N/A   Overcast
7:15 AM 28.4 °F 23.3 °F 26.6 °F 93% 30.07 in 10.0 mi SSW 4.6 mph - N/A   Overcast
7:35 AM 28.4 °F 23.3 °F 26.6 °F 93% 30.07 in 10.0 mi SW 4.6 mph - N/A   Overcast
7:55 AM 30.2 °F 24.3 °F 26.6 °F 86% 30.09 in 10.0 mi SW 5.8 mph - N/A   Overcast
8:15 AM 30.2 °F 22.6 °F 26.6 °F 86% 30.09 in 10.0 mi SW 8.1 mph - N/A   Overcast
8:35 AM 30.2 °F 22.6 °F 26.6 °F 86% 30.06 in 10.0 mi SW 8.1 mph - N/A   Overcast
8:55 AM 32.0 °F 25.6 °F 28.4 °F 87% 30.06 in 10.0 mi WSW 6.9 mph - N/A   Overcast
9:15 AM 32.0 °F 24.8 °F 28.4 °F 87% 30.07 in 10.0 mi SW 8.1 mph - N/A   Overcast
9:35 AM 32.0 °F 25.6 °F 28.4 °F 87% 30.07 in 10.0 mi SW 6.9 mph - N/A   Overcast
9:55 AM 32.0 °F 25.6 °F 28.4 °F 87% 30.06 in 10.0 mi WSW 6.9 mph - N/A   Overcast
10:15 AM 32.0 °F 24.8 °F 30.2 °F 93% 30.07 in 10.0 mi WSW 8.1 mph - N/A   Overcast
10:35 AM 32.0 °F 25.6 °F 30.2 °F 93% 30.08 in 10.0 mi WSW 6.9 mph - N/A   Overcast
10:55 AM 33.8 °F 27.7 °F 30.2 °F 87% 30.06 in 10.0 mi WSW 6.9 mph - N/A   Overcast
11:15 AM 33.8 °F 27.0 °F 30.2 °F 87% 30.04 in 10.0 mi West 8.1 mph - N/A   Overcast
11:35 AM 33.8 °F 29.6 °F 30.2 °F 87% 30.03 in 10.0 mi WSW 4.6 mph - N/A   Overcast
11:55 AM 32.0 °F 25.6 °F 30.2 °F 93% 30.04 in 10.0 mi West 6.9 mph - N/A   Overcast
12:15 PM 32.0 °F 24.8 °F 30.2 °F 93% 30.03 in 10.0 mi West 8.1 mph - N/A   Overcast
12:35 PM 33.8 °F 27.7 °F 30.2 °F 87% 30.03 in 10.0 mi West 6.9 mph - N/A   Overcast
12:55 PM 33.8 °F 25.8 °F 30.2 °F 87% 30.01 in 10.0 mi West 10.4 mph - N/A   Overcast
1:15 PM 33.8 °F 26.4 °F 30.2 °F 87% 30.01 in 10.0 mi West 9.2 mph - N/A   Overcast
1:35 PM 33.8 °F 27.7 °F 30.2 °F 87% 30.00 in 10.0 mi West 6.9 mph - N/A   Overcast
1:55 PM 33.8 °F 27.7 °F 30.2 °F 87% 30.00 in 10.0 mi West 6.9 mph - N/A   Overcast
2:15 PM 33.8 °F 28.6 °F 30.2 °F 87% 29.99 in 10.0 mi West 5.8 mph - N/A   Overcast
2:35 PM 33.8 °F 27.0 °F 30.2 °F 87% 29.99 in 10.0 mi WNW 8.1 mph - N/A   Overcast
2:55 PM 33.8 °F 27.0 °F 30.2 °F 87% 29.99 in 10.0 mi West 8.1 mph - N/A   Overcast
3:15 PM 33.8 °F 27.7 °F 30.2 °F 87% 30.00 in 10.0 mi WNW 6.9 mph - N/A   Overcast
3:35 PM 33.8 °F 29.6 °F 30.2 °F 87% 29.99 in 10.0 mi WNW 4.6 mph - N/A   Overcast
3:55 PM 33.8 °F 27.7 °F 30.2 °F 87% 29.99 in 10.0 mi WNW 6.9 mph - N/A   Overcast
4:15 PM 33.8 °F 26.4 °F 28.4 °F 81% 29.99 in 10.0 mi WNW 9.2 mph - N/A   Overcast
4:35 PM 33.8 °F 25.3 °F 28.4 °F 81% 30.00 in 10.0 mi WNW 11.5 mph 18.4 mph N/A   Overcast
4:55 PM 33.8 °F 25.3 °F 28.4 °F 81% 30.01 in 10.0 mi WNW 11.5 mph 17.3 mph N/A   Overcast
5:15 PM 32.0 °F 21.2 °F 28.4 °F 87% 30.02 in 10.0 mi NW 16.1 mph 23.0 mph N/A   Overcast
5:35 PM 32.0 °F 23.0 °F 28.4 °F 87% 30.03 in 10.0 mi NW 11.5 mph - N/A   Overcast
5:55 PM 32.0 °F 23.0 °F 28.4 °F 87% 30.04 in 7.0 mi NNW 11.5 mph 17.3 mph N/A   Overcast
6:15 PM 32.0 °F 23.0 °F 28.4 °F 87% 30.04 in 10.0 mi NW 11.5 mph 16.1 mph N/A   Overcast
6:35 PM 32.0 °F 24.8 °F 28.4 °F 87% 30.04 in 10.0 mi NNW 8.1 mph - N/A   Overcast
6:55 PM 32.0 °F 26.4 °F 28.4 °F 87% 30.05 in 10.0 mi NNW 5.8 mph - N/A   Overcast
7:15 PM 32.0 °F 24.8 °F 28.4 °F 87% 30.06 in 10.0 mi NW 8.1 mph - N/A   Overcast
7:35 PM 32.0 °F 24.2 °F 26.6 °F 80% 30.06 in 10.0 mi NW 9.2 mph - N/A   Overcast
7:55 PM 30.2 °F 23.4 °F 24.8 °F 80% 30.06 in 10.0 mi NW 6.9 mph - N/A   Overcast
8:15 PM 30.2 °F 24.3 °F 24.8 °F 80% 30.06 in 10.0 mi NW 5.8 mph - N/A   Overcast
8:35 PM 30.2 °F 22.6 °F 24.8 °F 80% 30.06 in 10.0 mi NW 8.1 mph - N/A   Overcast
8:55 PM 30.2 °F 21.9 °F 23.0 °F 75% 30.06 in 10.0 mi NW 9.2 mph - N/A   Overcast
9:15 PM 30.2 °F 21.9 °F 23.0 °F 75% 30.06 in 10.0 mi NW 9.2 mph - N/A   Overcast
9:35 PM 30.2 °F 20.2 °F 23.0 °F 75% 30.06 in 10.0 mi NW 12.7 mph 20.7 mph N/A   Overcast
9:55 PM 30.2 °F 19.8 °F 23.0 °F 75% 30.07 in 10.0 mi NNW 13.8 mph 20.7 mph N/A   Overcast
10:15 PM 28.4 °F 18.5 °F 23.0 °F 80% 30.07 in 10.0 mi NNW 11.5 mph 19.6 mph N/A   Overcast
10:35 PM 26.6 °F 13.4 °F 21.2 °F 80% 30.08 in 10.0 mi NW 18.4 mph - N/A   Overcast
10:55 PM 26.6 °F 13.8 °F 19.4 °F 74% 30.09 in 10.0 mi NW 17.3 mph 24.2 mph N/A   Overcast
11:15 PM 26.6 °F 13.8 °F 17.6 °F 69% 30.09 in 10.0 mi NW 17.3 mph 25.3 mph N/A   Overcast
11:35 PM 26.6 °F 15.7 °F 15.8 °F 64% 30.09 in 10.0 mi NW 12.7 mph - N/A   Overcast
11:55 PM 24.8 °F 12.9 °F 14.0 °F 64% 30.08 in 10.0 mi NW 13.8 mph 20.7 mph N/A   Overcast